Regional Weather Roundup
Issued by NWS

Home | Current Version | Previous Version | Graphics & Text | Print | Product List | Glossary On
Versions: 1 2 3 4 5 6 7 8 9 10 11 12 13 14 15 16 17 18 19 20 21 22 23 24 25 26 27 28 29 30 31 32 33 34 35 36 37 38 39 40 41 42 43 44 45 46 47 48 49 50
005
ASUS45 KCYS 011810
RWRWY

WYOMING REGIONAL WEATHER ROUNDUP
NATIONAL WEATHER SERVICE CHEYENNE WY
1200 PM MDT SUN MAY 01 2016

NOTE:  "FAIR" INDICATES FEW OR NO CLOUDS BELOW 12,000 FEET
WITH NO SIGNIFICANT WEATHER AND/OR OBSTRUCTIONS TO VISIBILITY.

WYZ001-011900-
YELLOWSTONE NATIONAL PARK

CITY           SKY/WX    TMP DP  RH WIND       PRES   REMARKS
LK YELLOWSTONE   N/A     41  22  46 VRB5      30.31S
6HR MIN TEMP:  29; 6HR MAX TEMP:  41;

W YELLOWSTONE  NOT AVBL

$$
WYZ002>013-054>058-071-098>099-011900-
NORTHERN WYOMING

CITY           SKY/WX    TMP DP  RH WIND       PRES   REMARKS
JACKSON        SUNNY     48  19  32 NE13G26   30.23F
CODY           FAIR      48  27  43 CALM      30.31F
GREYBULL       FAIR      56  24  29 SE9       30.29F
6HR MIN TEMP:  34; 6HR MAX TEMP:  56;

WORLAND        FAIR      52  33  48 VRB6      30.31S
6HR MIN TEMP:  34; 6HR MAX TEMP:  52;

SHERIDAN       FAIR      55  28  35 VRB5      30.32F
6HR MIN TEMP:  37; 6HR MAX TEMP:  55;

BUFFALO          N/A    N/A N/A N/A MISG      30.33F
GILLETTE       FAIR      49  28  44 VRB7      30.33S
6HR MIN TEMP:  30; 6HR MAX TEMP:  49;

HULETT         FAIR      50  28  43 CALM      30.33F
NEWCASTLE      FAIR      52  23  32 CALM      30.30F

$$
WYZ014>020-022>026-101>103-011900-
CENTRAL WYOMING

CITY           SKY/WX    TMP DP  RH WIND       PRES   REMARKS
BIG PINEY      PTSUNNY   44  23  43 SW8       30.27F
6HR MIN TEMP:  23; 6HR MAX TEMP:  45;

PINEDALE       CLOUDY    41  18  38 E9        30.26F
DUBOIS         NOT AVBL
LANDER         CLOUDY    41  30  65 VRB3      30.33S
6HR MIN TEMP:  34; 6HR MAX TEMP:  41;

RIVERTON       CLOUDY    43  32  65 NW5       30.34F
6HR MIN TEMP:  33; 6HR MAX TEMP:  43;

CASPER         PTSUNNY   45  24  43 E9G21     30.32F
6HR MIN TEMP:  31; 6HR MAX TEMP:  45;

DOUGLAS        PTSUNNY   45  26  47 SW7       30.33F
6HR MIN TEMP:  29; 6HR MAX TEMP:  45;


$$
WYZ021-027>030-104>119-011900-
SOUTHERN WYOMING

CITY           SKY/WX    TMP DP  RH WIND       PRES   REMARKS
EVANSTON       PTSUNNY   38  21  50 E29G39    30.19R WCI  26
6HR MIN TEMP:  32; 6HR MAX TEMP:  38;

KEMMERER       CLOUDY    37  23  56 E24G35    30.24S WCI  26
FORT BRIDGER   CLOUDY    37  25  60 E20G26    30.27S WCI  27
ROCK SPRINGS   FAIR      40  23  50 NE29G43   30.22F WCI  29
6HR MIN TEMP:  32; 6HR MAX TEMP:  41;

DIXON          FAIR      47  22  36 E22G29    30.18F
RAWLINS        PTSUNNY   39  25  57 E23G30    30.28F WCI  28
6HR MIN TEMP:  28; 6HR MAX TEMP:  37;

SARATOGA       FAIR      39  25  56 NE14G21   30.25S WCI  31
LARAMIE        PTSUNNY   32  20  61 NE14      30.28F WCI  22
6HR MIN TEMP:  26; 6HR MAX TEMP:  32;

CHEYENNE       FAIR      36  24  62 NE15      30.30F WCI  27
6HR MIN TEMP:  30; 6HR MAX TEMP:  36;

TORRINGTON     CLOUDY    49  25  39 NE8       30.31F
6HR MIN TEMP:  36; 6HR MAX TEMP:  49;

PINE BLUFFS    CLOUDY    39  32  75 N12       30.33S WCI  32

$$




USA.gov is the U.S. government's official web portal to all federal, state and local government web resources and services.